Flag for Germany Weather past 2 weeks in Moers, North Rhine-Westphalia, Germany

Now
72 °F

Scattered clouds.


Feels Like: 76 °F
Forecast: 56 / 75 °F
Wind: 10 mph from Northwest

Location: Duesseldorf

Current Time: Jul 30, 2014 at 12:30:25 PM

Latest Report: Jul 30, 2014 at 11:50 AM


Visibility: N/A

Pressure: 29.89 "Hg

Humidity: 61%

Dew point: 57 °F

Location of MoersLocation

Historic Weather in Moers — Graph

°F

Moers temperature yesterday

Maximum temperature yesterday: 79 °F (at 1:20 PM)
Minimum temperature yesterday: 64 °F (at 2:20 AM)
Average temperature yesterday: 71 °F

Past Weeks' High & Low Weather Summary

 TemperatureHumidityPressure
High93 °F (Jul 19, 3:50 PM)100% (Jul 16, 6:20 AM)30.18 "Hg (Jul 16, 6:20 AM)
Low57 °F (Jul 26, 5:50 AM)23% (Jul 19, 4:50 PM)29.77 "Hg (Jul 19, 10:50 PM)
Average72 °F70%29.96 "Hg
* Reported Jul 15 11:20 AM — Jul 30 11:20 AM, Moers, Weather by CustomWeather, © 2014

Note: Actual official high and low records may vary slightly from our data, if they occured in-between our weather recording intervals... More about our weather records

Advertising

Moers weather history for previous 24 hours

 ConditionsComfort  
Time TempWeatherWind HumidityBarometerVisibility
11:20 AM
Jul 30
70 °FPartly sunny.12 mph60%29.89 "HgN/A
10:50 AM68 °FPartly sunny.10 mph64%29.89 "HgN/A
10:20 AM68 °FPartly sunny.10 mph69%29.89 "HgN/A
9:50 AM66 °FPartly sunny.9 mph78%29.89 "HgN/A
9:20 AM64 °FBroken clouds.9 mph83%29.89 "HgN/A
8:50 AM64 °FBroken clouds.8 mph83%29.89 "HgN/A
8:20 AM64 °FBroken clouds.10 mph83%29.86 "HgN/A
7:50 AM64 °FPartly sunny.9 mph83%29.86 "HgN/A
7:20 AM64 °FBroken clouds.9 mph83%29.86 "HgN/A
6:50 AM64 °FPartly cloudy.9 mph83%29.86 "HgN/A
6:20 AM64 °FPartly cloudy.10 mph83%29.86 "HgN/A
5:50 AM64 °FPartly cloudy.9 mph88%29.83 "HgN/A
5:20 AM64 °FPartly cloudy.8 mph88%29.83 "HgN/A
4:50 AM64 °FPartly cloudy.12 mph88%29.83 "HgN/A
4:20 AM66 °FPartly cloudy.12 mph83%29.83 "HgN/A
3:50 AM66 °FPassing clouds.12 mph83%29.83 "HgN/A
3:20 AM66 °FPassing clouds.8 mph83%29.83 "HgN/A
2:50 AM68 °FPassing clouds.10 mph78%29.83 "HgN/A
2:20 AM68 °FPartly cloudy.12 mph83%29.83 "HgN/A
1:50 AM68 °FPartly cloudy.12 mph83%29.83 "HgN/A
1:20 AM70 °FPartly cloudy.8 mph78%29.83 "HgN/A
12:50 AM70 °FPassing clouds.13 mph78%29.83 "HgN/A
12:20 AM68 °FPartly cloudy.8 mph88%29.83 "HgN/A
11:50 PM
Jul 29
68 °FPartly cloudy.6 mph83%29.83 "HgN/A
11:20 PM68 °FSprinkles. Partly cloudy.6 mph83%29.83 "HgN/A
10:50 PM72 °FScattered showers. Passing clouds.14 mph69%29.83 "HgN/A
10:20 PM73 °FScattered showers. Partly sunny.12 mph74%29.83 "HgN/A
9:50 PM73 °FSprinkles. Broken clouds.7 mph78%29.80 "HgN/A
9:20 PM72 °FSprinkles. Partly sunny.9 mph83%29.80 "HgN/A
8:50 PM73 °FScattered showers. Broken clouds.6 mph78%29.80 "HgN/A
8:20 PM73 °FBroken clouds.6 mph78%29.80 "HgN/A
7:50 PM73 °FPartly sunny.5 mph78%29.77 "HgN/A
7:20 PM73 °FPartly sunny.5 mph78%29.77 "HgN/A
6:50 PM73 °FSprinkles. Broken clouds.5 mph78%29.77 "HgN/A
6:20 PM73 °FThundershowers. Broken clouds.6 mph74%29.80 "HgN/A
5:50 PM73 °FThundershowers. Broken clouds.10 mph74%29.80 "HgN/A
5:20 PM77 °FThundershowers. Broken clouds.7 mph65%29.80 "HgN/A
4:50 PM79 °FBroken clouds.7 mph58%29.77 "HgN/A
4:20 PM77 °FBroken clouds.7 mph65%29.80 "HgN/A
3:50 PM79 °FBroken clouds.8 mph61%29.80 "HgN/A
3:20 PM79 °FPartly sunny.12 mph58%29.80 "HgN/A
2:50 PM77 °FScattered clouds.12 mph69%29.80 "HgN/A
2:20 PM75 °FSprinkles. Partly sunny.12 mph74%29.80 "HgN/A
1:50 PM77 °FSprinkles. Partly sunny.8 mph74%29.80 "HgN/A
1:20 PM79 °FScattered clouds.8 mph61%29.83 "HgN/A
12:50 PM77 °FScattered clouds.10 mph69%29.83 "HgN/A
12:20 PM77 °FScattered clouds.7 mph69%29.83 "Hg6 mi
Weather by CustomWeather, © 2014

See weather overviewHow to use our weather pages